QPF
0.00 0.00 0.00 0.00 0.00 0.00 0.00 0.01 0.00 0.00 0.01 0.00 0.00 0.00 0.00 0.00 0.00 0.00 0.00 0.00 0.00 0.00 0.00 0.00 0.00 0.00 0.00 0.00 0.00 0.00 0.00 0.00 0.00 0.00 0.00 0.00 0.00 0.01 0.01 0.02 0.04 0.07 0.04
0.00 0.00 0.00 0.00 0.00 0.00 0.01 0.01 0.01 0.01 0.01 0.01 0.00 0.00 0.01 0.00 0.00 0.00 0.00 0.00 0.00 0.00 0.00 0.00 0.00 0.00 0.00 0.00 0.00 0.00 0.00 0.00 0.00 0.00 0.00 0.00 0.00 0.00 0.00 0.01 0.05 0.11 0.05
0.00 0.01 0.00 0.00 0.00 0.00 0.00 0.00 0.01 0.01 0.01 0.01 0.01 0.01 0.01 0.01 0.01 0.01 0.01 0.00 0.00 0.00 0.00 0.00 0.00 0.00 0.00 0.00 0.00 0.00 0.00 0.00 0.00 0.00 0.01 0.03 0.03 0.01 0.01 0.02 0.03 0.05 0.02
0.01 0.01 0.00 0.00 0.00 0.00 0.00 0.00 0.01 0.01 0.02 0.01 0.01 0.01 0.01 0.01 0.01 0.01 0.01 0.01 0.01 0.00 0.00 0.01 0.01 0.01 0.00 0.00 0.00 0.00 0.00 0.00 0.00 0.00 0.04 0.07 0.06 0.06 0.03 0.01 0.02 0.02 0.02
0.01 0.01 0.00 0.00 0.00 0.00 0.00 0.00 0.01 0.01 0.01 0.02 0.02 0.02 0.01 0.01 0.01 0.01 0.01 0.01 0.01 0.01 0.01 0.01 0.01 0.00 0.00 0.00 0.00 0.00 0.00 0.00 0.00 0.01 0.06 0.08 0.09 0.06 0.03 0.02 0.02 0.02 0.02
0.00 0.01 0.00 0.00 0.00 0.00 0.00 0.00 0.01 0.01 0.01 0.02 0.02 0.01 0.01 0.01 0.01 0.01 0.01 0.01 0.02 0.01 0.01 0.00 0.00 0.00 0.00 0.00 0.00 0.00 0.00 0.00 0.00 0.01 0.07 0.11 0.08 0.07 0.03 0.02 0.01 0.02 0.02
0.00 0.00 0.00 0.00 0.00 0.00 0.00 0.01 0.01 0.01 0.01 0.01 0.01 0.01 0.01 0.02 0.01 0.01 0.01 0.01 0.01 0.01 0.01 0.00 0.00 0.00 0.00 0.00 0.00 0.00 0.00 0.00 0.00 0.01 0.04 0.04 0.06 0.06 0.04 0.02 0.02 0.03 0.03
0.00 0.00 0.00 0.00 0.01 0.01 0.01 0.01 0.01 0.01 0.01 0.01 0.01 0.01 0.01 0.01 0.01 0.01 0.01 0.01 0.01 0.01 0.01 0.01 0.00 0.00 0.00 0.00 0.00 0.00 0.01 0.00 0.01 0.01 0.01 0.02 0.04 0.04 0.04 0.02 0.02 0.03 0.04
0.01 0.01 0.01 0.01 0.01 0.01 0.01 0.01 0.01 0.01 0.01 0.01 0.02 0.02 0.02 0.02 0.01 0.01 0.01 0.01 0.01 0.01 0.01 0.01 0.01 0.00 0.00 0.00 0.01 0.01 0.01 0.01 0.01 0.01 0.02 0.03 0.05 0.05 0.05 0.04 0.04 0.04 0.05
0.03 0.03 0.03 0.02 0.03 0.03 0.02 0.03 0.02 0.02 0.02 0.02 0.03 0.03 0.03 0.03 0.02 0.01 0.01 0.01 0.01 0.01 0.01 0.01 0.01 0.01 0.01 0.01 0.01 0.01 0.01 0.01 0.01 0.01 0.02 0.03 0.04 0.06 0.06 0.05 0.05 0.05 0.06
0.03 0.03 0.03 0.03 0.04 0.04 0.04 0.04 0.04 0.04 0.03 0.04 0.05 0.04 0.04 0.05 0.06 0.05 0.03 0.03 0.03 0.02 0.02 0.02 0.01 0.01 0.01 0.01 0.01 0.01 0.01 0.01 0.01 0.01 0.05 0.05 0.05 0.06 0.06 0.06 0.06 0.05 0.05
0.02 0.03 0.04 0.04 0.04 0.04 0.05 0.07 0.10 0.11 0.11 0.11 0.12 0.10 0.09 0.10 0.10 0.08 0.09 0.08 0.06 0.04 0.03 0.04 0.04 0.03 0.03 0.03 0.04 0.04 0.02 0.02 0.03 0.03 0.06 0.08 0.07 0.06 0.06 0.05 0.05 0.06 0.05
0.02 0.02 0.02 0.03 0.03 0.04 0.06 0.08 0.12 0.14 0.18 0.19 0.19 0.17 0.17 0.16 0.12 0.10 0.12 0.11 0.09 0.06 0.05 0.05 0.04 0.04 0.04 0.05 0.07 0.07 0.03 0.03 0.05 0.07 0.11 0.10 0.09 0.07 0.06 0.05 0.05 0.05 0.05
0.02 0.02 0.02 0.04 0.04 0.05 0.06 0.07 0.08 0.08 0.10 0.09 0.11 0.11 0.15 0.16 0.14 0.12 0.11 0.10 0.09 0.08 0.08 0.08 0.06 0.05 0.04 0.04 0.04 0.05 0.04 0.03 0.03 0.05 0.07 0.05 0.04 0.05 0.05 0.06 0.06 0.06 0.06
0.03 0.02 0.03 0.04 0.04 0.05 0.07 0.07 0.08 0.09 0.09 0.10 0.11 0.11 0.13 0.14 0.13 0.13 0.11 0.11 0.07 0.08 0.11 0.09 0.07 0.07 0.07 0.05 0.04 0.04 0.02 0.03 0.03 0.04 0.06 0.05 0.04 0.04 0.04 0.04 0.05 0.05 0.05
0.03 0.02 0.03 0.05 0.04 0.05 0.07 0.08 0.08 0.08 0.10 0.11 0.11 0.10 0.10 0.12 0.11 0.11 0.10 0.11 0.10 0.11 0.15 0.14 0.10 0.11 0.13 0.15 0.08 0.03 0.02 0.03 0.03 0.03 0.04 0.06 0.06 0.04 0.04 0.04 0.05 0.05 0.05
0.04 0.02 0.03 0.04 0.04 0.05 0.06 0.07 0.06 0.06 0.07 0.08 0.10 0.10 0.09 0.11 0.11 0.12 0.11 0.11 0.13 0.16 0.16 0.17 0.17 0.15 0.13 0.15 0.11 0.07 0.06 0.05 0.04 0.04 0.03 0.06 0.09 0.09 0.06 0.04 0.04 0.05 0.05
0.03 0.03 0.03 0.03 0.04 0.05 0.06 0.07 0.07 0.05 0.05 0.07 0.11 0.08 0.08 0.11 0.13 0.12 0.11 0.12 0.13 0.14 0.17 0.16 0.16 0.14 0.13 0.12 0.10 0.08 0.08 0.07 0.05 0.04 0.04 0.04 0.05 0.07 0.08 0.05 0.04 0.03 0.04
0.02 0.03 0.04 0.06 0.07 0.07 0.06 0.05 0.05 0.06 0.06 0.08 0.10 0.10 0.10 0.11 0.12 0.13 0.13 0.15 0.16 0.15 0.16 0.14 0.17 0.16 0.13 0.11 0.09 0.09 0.09 0.09 0.07 0.04 0.04 0.04 0.06 0.06 0.06 0.05 0.03 0.03 0.04
0.03 0.04 0.07 0.07 0.09 0.09 0.07 0.06 0.05 0.05 0.07 0.09 0.11 0.11 0.11 0.10 0.10 0.12 0.12 0.12 0.14 0.15 0.15 0.14 0.17 0.18 0.17 0.15 0.10 0.10 0.10 0.08 0.06 0.06 0.05 0.05 0.08 0.09 0.06 0.04 0.06 0.04 0.05
0.05 0.06 0.09 0.09 0.09 0.11 0.14 0.10 0.10 0.11 0.14 0.17 0.16 0.11 0.09 0.08 0.09 0.10 0.11 0.12 0.14 0.17 0.16 0.15 0.15 0.14 0.13 0.15 0.14 0.12 0.11 0.08 0.07 0.05 0.05 0.05 0.06 0.08 0.08 0.06 0.05 0.06 0.05
0.06 0.07 0.09 0.11 0.12 0.11 0.15 0.17 0.17 0.23 0.26 0.26 0.22 0.18 0.12 0.11 0.09 0.09 0.11 0.11 0.11 0.12 0.14 0.14 0.15 0.13 0.11 0.12 0.13 0.14 0.12 0.09 0.06 0.04 0.04 0.04 0.05 0.05 0.05 0.04 0.04 0.04 0.03
0.07 0.07 0.07 0.07 0.07 0.08 0.09 0.10 0.11 0.14 0.16 0.17 0.15 0.14 0.13 0.11 0.08 0.08 0.09 0.09 0.09 0.11 0.12 0.12 0.14 0.15 0.13 0.13 0.12 0.12 0.11 0.09 0.08 0.06 0.05 0.03 0.05 0.05 0.04 0.04 0.03 0.03 0.04
0.04 0.03 0.03 0.04 0.04 0.05 0.06 0.07 0.07 0.08 0.07 0.08 0.09 0.10 0.09 0.10 0.08 0.07 0.07 0.09 0.10 0.12 0.13 0.13 0.15 0.16 0.15 0.12 0.12 0.12 0.10 0.10 0.10 0.08 0.06 0.04 0.04 0.03 0.03 0.02 0.03 0.04 0.04
0.02 0.02 0.02 0.03 0.04 0.05 0.05 0.05 0.06 0.06 0.06 0.06 0.07 0.09 0.08 0.09 0.07 0.06 0.06 0.07 0.09 0.09 0.09 0.10 0.12 0.13 0.12 0.11 0.09 0.09 0.10 0.10 0.10 0.08 0.07 0.05 0.04 0.03 0.03 0.03 0.04 0.05 0.06
0.01 0.02 0.02 0.02 0.03 0.04 0.04 0.04 0.05 0.06 0.06 0.06 0.07 0.07 0.07 0.07 0.07 0.06 0.08 0.09 0.09 0.10 0.11 0.11 0.11 0.12 0.12 0.11 0.09 0.08 0.08 0.09 0.08 0.08 0.07 0.07 0.06 0.05 0.04 0.03 0.04 0.04 0.05
MSLP
1002.51 1002.59 1002.98 1003.64 1004.44 1005.29 1006.08 1006.74 1007.24 1007.61 1007.90 1008.17 1008.48 1008.85 1009.29 1009.75 1010.21 1010.64 1010.99 1011.28 1011.51 1011.72 1011.93 1012.15 1012.39 1012.63 1012.85 1013.02 1013.13 1013.19 1013.21 1013.22 1013.25 1013.33 1013.48 1013.69 1013.94 1014.22 1014.48 1014.71 1014.90 1015.08 1015.26
1002.15 1002.37 1002.91 1003.68 1004.58 1005.46 1006.23 1006.84 1007.27 1007.57 1007.81 1008.08 1008.41 1008.85 1009.37 1009.92 1010.46 1010.92 1011.28 1011.54 1011.72 1011.87 1012.03 1012.21 1012.42 1012.66 1012.89 1013.07 1013.19 1013.25 1013.26 1013.24 1013.25 1013.32 1013.46 1013.68 1013.96 1014.27 1014.58 1014.86 1015.11 1015.33 1015.54
1001.60 1002.02 1002.74 1003.67 1004.66 1005.59 1006.36 1006.93 1007.30 1007.54 1007.74 1007.99 1008.34 1008.82 1009.39 1010.00 1010.57 1011.04 1011.38 1011.61 1011.75 1011.86 1011.98 1012.14 1012.36 1012.62 1012.88 1013.09 1013.23 1013.29 1013.29 1013.26 1013.26 1013.31 1013.44 1013.67 1013.96 1014.29 1014.64 1014.96 1015.25 1015.51 1015.75
1000.96 1001.60 1002.52 1003.61 1004.71 1005.69 1006.46 1007.00 1007.32 1007.51 1007.68 1007.92 1008.29 1008.79 1009.39 1010.01 1010.59 1011.05 1011.36 1011.55 1011.66 1011.74 1011.86 1012.04 1012.29 1012.58 1012.87 1013.11 1013.27 1013.34 1013.34 1013.30 1013.27 1013.30 1013.43 1013.64 1013.94 1014.29 1014.65 1015.01 1015.33 1015.62 1015.89
1000.38 1001.22 1002.33 1003.55 1004.75 1005.77 1006.54 1007.04 1007.33 1007.49 1007.64 1007.89 1008.27 1008.78 1009.39 1010.01 1010.57 1011.01 1011.29 1011.46 1011.55 1011.63 1011.76 1011.97 1012.26 1012.59 1012.92 1013.19 1013.36 1013.43 1013.41 1013.35 1013.30 1013.31 1013.41 1013.61 1013.90 1014.25 1014.62 1014.99 1015.33 1015.65 1015.95
999.97 1000.98 1002.22 1003.55 1004.79 1005.82 1006.58 1007.06 1007.32 1007.47 1007.62 1007.88 1008.28 1008.81 1009.42 1010.03 1010.57 1010.97 1011.24 1011.38 1011.48 1011.58 1011.75 1012.00 1012.33 1012.70 1013.05 1013.32 1013.49 1013.54 1013.50 1013.41 1013.33 1013.31 1013.39 1013.57 1013.84 1014.17 1014.54 1014.91 1015.26 1015.60 1015.93
999.82 1000.93 1002.24 1003.60 1004.84 1005.85 1006.57 1007.02 1007.27 1007.42 1007.60 1007.88 1008.31 1008.85 1009.46 1010.06 1010.57 1010.96 1011.21 1011.36 1011.47 1011.61 1011.82 1012.12 1012.48 1012.87 1013.22 1013.48 1013.62 1013.63 1013.55 1013.43 1013.32 1013.28 1013.34 1013.49 1013.74 1014.06 1014.41 1014.77 1015.13 1015.48 1015.83
999.92 1001.04 1002.35 1003.66 1004.85 1005.80 1006.48 1006.90 1007.15 1007.33 1007.55 1007.87 1008.33 1008.89 1009.50 1010.08 1010.57 1010.94 1011.19 1011.35 1011.50 1011.68 1011.93 1012.27 1012.65 1013.04 1013.37 1013.59 1013.68 1013.64 1013.52 1013.37 1013.23 1013.18 1013.22 1013.36 1013.60 1013.90 1014.23 1014.58 1014.93 1015.29 1015.66
1000.14 1001.22 1002.45 1003.67 1004.76 1005.64 1006.26 1006.67 1006.94 1007.16 1007.43 1007.81 1008.30 1008.88 1009.48 1010.04 1010.51 1010.86 1011.11 1011.30 1011.48 1011.71 1012.00 1012.36 1012.75 1013.12 1013.40 1013.57 1013.60 1013.51 1013.35 1013.17 1013.03 1012.97 1013.02 1013.16 1013.40 1013.68 1014.01 1014.34 1014.69 1015.05 1015.43
1000.31 1001.31 1002.42 1003.53 1004.51 1005.30 1005.88 1006.29 1006.60 1006.88 1007.22 1007.66 1008.18 1008.77 1009.36 1009.89 1010.34 1010.67 1010.92 1011.13 1011.35 1011.61 1011.94 1012.31 1012.69 1013.02 1013.26 1013.36 1013.34 1013.21 1013.02 1012.83 1012.70 1012.66 1012.72 1012.89 1013.13 1013.42 1013.74 1014.07 1014.41 1014.77 1015.15
1000.27 1001.16 1002.16 1003.15 1004.03 1004.76 1005.33 1005.76 1006.12 1006.49 1006.90 1007.39 1007.95 1008.54 1009.10 1009.60 1010.01 1010.33 1010.58 1010.81 1011.06 1011.35 1011.70 1012.08 1012.44 1012.73 1012.91 1012.96 1012.89 1012.73 1012.53 1012.36 1012.25 1012.25 1012.35 1012.55 1012.81 1013.11 1013.44 1013.76 1014.10 1014.46 1014.84
999.91 1000.71 1001.60 1002.49 1003.31 1004.01 1004.59 1005.08 1005.52 1005.97 1006.46 1007.00 1007.59 1008.17 1008.70 1009.17 1009.55 1009.84 1010.09 1010.33 1010.61 1010.93 1011.29 1011.66 1012.00 1012.26 1012.40 1012.41 1012.31 1012.14 1011.95 1011.80 1011.73 1011.77 1011.92 1012.15 1012.44 1012.76 1013.09 1013.42 1013.76 1014.11 1014.49
999.21 999.95 1000.76 1001.60 1002.38 1003.09 1003.71 1004.27 1004.80 1005.34 1005.91 1006.50 1007.10 1007.67 1008.18 1008.61 1008.96 1009.24 1009.49 1009.75 1010.04 1010.38 1010.75 1011.12 1011.44 1011.67 1011.78 1011.77 1011.67 1011.50 1011.34 1011.23 1011.20 1011.28 1011.47 1011.73 1012.04 1012.37 1012.71 1013.04 1013.38 1013.73 1014.10
998.30 998.98 999.76 1000.56 1001.34 1002.07 1002.75 1003.39 1004.01 1004.64 1005.27 1005.90 1006.51 1007.07 1007.56 1007.97 1008.30 1008.58 1008.84 1009.12 1009.43 1009.79 1010.16 1010.53 1010.84 1011.05 1011.16 1011.15 1011.06 1010.92 1010.80 1010.72 1010.73 1010.83 1011.03 1011.29 1011.60 1011.94 1012.27 1012.61 1012.94 1013.29 1013.66
997.35 998.00 998.74 999.52 1000.31 1001.07 1001.81 1002.52 1003.21 1003.90 1004.57 1005.23 1005.84 1006.40 1006.88 1007.28 1007.62 1007.91 1008.20 1008.51 1008.85 1009.22 1009.60 1009.96 1010.27 1010.48 1010.60 1010.62 1010.56 1010.46 1010.37 1010.32 1010.35 1010.45 1010.63 1010.88 1011.16 1011.46 1011.78 1012.10 1012.44 1012.79 1013.16
996.62 997.21 997.90 998.66 999.43 1000.21 1000.97 1001.72 1002.45 1003.16 1003.86 1004.52 1005.13 1005.68 1006.17 1006.59 1006.95 1007.28 1007.61 1007.95 1008.32 1008.71 1009.10 1009.46 1009.78 1010.01 1010.15 1010.21 1010.20 1010.16 1010.10 1010.08 1010.09 1010.17 1010.30 1010.48 1010.70 1010.96 1011.24 1011.54 1011.87 1012.22 1012.59
996.30 996.80 997.41 998.10 998.83 999.58 1000.32 1001.06 1001.78 1002.48 1003.16 1003.80 1004.41 1004.96 1005.45 1005.90 1006.31 1006.70 1007.08 1007.46 1007.86 1008.26 1008.66 1009.03 1009.36 1009.62 1009.81 1009.93 1009.98 1009.99 1009.98 1009.96 1009.96 1009.98 1010.04 1010.13 1010.27 1010.44 1010.67 1010.94 1011.25 1011.60 1011.97
996.51 996.87 997.36 997.94 998.58 999.24 999.92 1000.60 1001.26 1001.90 1002.52 1003.12 1003.69 1004.24 1004.76 1005.24 1005.71 1006.15 1006.58 1007.01 1007.43 1007.84 1008.24 1008.62 1008.97 1009.27 1009.52 1009.71 1009.84 1009.92 1009.95 1009.95 1009.92 1009.88 1009.85 1009.84 1009.87 1009.96 1010.11 1010.34 1010.63 1010.97 1011.34
997.24 997.44 997.76 998.19 998.69 999.23 999.79 1000.35 1000.90 1001.44 1001.97 1002.50 1003.03 1003.56 1004.09 1004.61 1005.13 1005.63 1006.10 1006.56 1006.99 1007.41 1007.81 1008.19 1008.56 1008.90 1009.22 1009.49 1009.72 1009.88 1009.97 1009.99 1009.94 1009.84 1009.73 1009.62 1009.55 1009.54 1009.62 1009.80 1010.06 1010.39 1010.75
998.40 998.41 998.54 998.79 999.13 999.50 999.91 1000.32 1000.72 1001.13 1001.54 1001.98 1002.45 1002.95 1003.48 1004.03 1004.59 1005.12 1005.63 1006.10 1006.54 1006.94 1007.33 1007.71 1008.09 1008.48 1008.87 1009.24 1009.56 1009.81 1009.97 1010.03 1009.98 1009.85 1009.67 1009.47 1009.32 1009.23 1009.25 1009.38 1009.60 1009.90 1010.24
999.83 999.65 999.60 999.66 999.81 1000.01 1000.24 1000.47 1000.71 1000.97 1001.25 1001.58 1001.98 1002.44 1002.96 1003.52 1004.10 1004.66 1005.18 1005.65 1006.06 1006.44 1006.81 1007.17 1007.57 1008.00 1008.45 1008.91 1009.34 1009.69 1009.93 1010.04 1010.02 1009.88 1009.66 1009.42 1009.20 1009.06 1009.03 1009.12 1009.31 1009.57 1009.87
1001.34 1000.99 1000.77 1000.66 1000.63 1000.65 1000.70 1000.76 1000.83 1000.93 1001.09 1001.31 1001.63 1002.05 1002.55 1003.11 1003.69 1004.25 1004.77 1005.22 1005.61 1005.95 1006.27 1006.62 1007.02 1007.47 1007.98 1008.52 1009.03 1009.48 1009.81 1009.99 1010.02 1009.90 1009.68 1009.43 1009.19 1009.03 1008.97 1009.03 1009.19 1009.42 1009.67
1002.76 1002.28 1001.92 1001.65 1001.45 1001.31 1001.19 1001.09 1001.01 1000.98 1001.02 1001.15 1001.40 1001.78 1002.26 1002.80 1003.38 1003.94 1004.43 1004.86 1005.21 1005.51 1005.79 1006.11 1006.49 1006.95 1007.49 1008.08 1008.67 1009.20 1009.61 1009.87 1009.96 1009.89 1009.71 1009.48 1009.26 1009.10 1009.04 1009.09 1009.23 1009.42 1009.62
1003.99 1003.42 1002.93 1002.52 1002.17 1001.87 1001.60 1001.36 1001.16 1001.02 1000.97 1001.04 1001.24 1001.59 1002.05 1002.59 1003.16 1003.71 1004.19 1004.59 1004.90 1005.16 1005.41 1005.68 1006.04 1006.49 1007.04 1007.66 1008.28 1008.86 1009.34 1009.66 1009.81 1009.81 1009.69 1009.51 1009.34 1009.22 1009.19 1009.24 1009.37 1009.53 1009.68
1004.98 1004.32 1003.72 1003.18 1002.69 1002.25 1001.85 1001.49 1001.19 1000.97 1000.86 1000.90 1001.08 1001.42 1001.88 1002.43 1003.00 1003.55 1004.02 1004.41 1004.70 1004.93 1005.14 1005.38 1005.70 1006.13 1006.66 1007.26 1007.90 1008.49 1009.00 1009.36 1009.57 1009.64 1009.59 1009.49 1009.38 1009.32 1009.33 1009.41 1009.54 1009.68 1009.78
1005.73 1004.98 1004.26 1003.58 1002.95 1002.37 1001.85 1001.39 1001.02 1000.76 1000.63 1000.66 1000.86 1001.21 1001.68 1002.25 1002.84 1003.40 1003.89 1004.27 1004.57 1004.79 1004.98 1005.20 1005.48 1005.87 1006.36 1006.92 1007.52 1008.10 1008.61 1008.99 1009.24 1009.36 1009.39 1009.36 1009.33 1009.34 1009.41 1009.53 1009.67 1009.80 1009.87
Thickness
5840 5832 5823 5817 5812 5808 5804 5799 5795 5792 5788 5785 5781 5778 5775 5772 5769 5766 5764 5761 5759 5757 5755 5753 5751 5750 5748 5747 5746 5746 5745 5744 5744 5743 5742 5741 5740 5739 5738 5737 5736 5735 5734
5841 5830 5821 5815 5810 5805 5801 5797 5793 5789 5785 5781 5778 5774 5771 5768 5766 5763 5761 5758 5756 5754 5752 5750 5749 5747 5746 5745 5744 5743 5742 5742 5741 5741 5740 5739 5738 5737 5736 5734 5734 5733 5732
5839 5827 5818 5813 5807 5802 5798 5794 5790 5786 5782 5778 5774 5771 5768 5765 5762 5760 5757 5755 5753 5751 5749 5747 5746 5745 5744 5743 5742 5741 5740 5739 5739 5739 5739 5739 5737 5735 5734 5732 5731 5730 5729
5838 5826 5818 5810 5805 5800 5795 5791 5786 5783 5779 5775 5772 5768 5765 5762 5759 5756 5754 5752 5750 5748 5746 5745 5743 5742 5741 5740 5739 5738 5738 5737 5737 5737 5738 5738 5737 5734 5732 5730 5729 5727 5726
5836 5826 5815 5808 5802 5797 5792 5788 5784 5780 5776 5772 5769 5765 5762 5759 5756 5753 5751 5749 5748 5746 5744 5742 5741 5739 5738 5738 5737 5736 5735 5735 5735 5736 5737 5737 5736 5733 5731 5729 5727 5725 5724
5836 5826 5813 5806 5800 5794 5789 5785 5781 5777 5773 5769 5766 5762 5759 5756 5753 5751 5748 5746 5745 5743 5741 5740 5738 5737 5735 5734 5734 5733 5733 5732 5733 5735 5736 5736 5734 5732 5730 5728 5726 5724 5722
5834 5824 5811 5804 5798 5792 5786 5782 5777 5773 5770 5766 5762 5759 5756 5753 5750 5748 5745 5743 5742 5740 5739 5737 5736 5734 5733 5732 5731 5731 5730 5730 5731 5735 5736 5736 5734 5731 5729 5727 5724 5722 5721
5831 5821 5808 5801 5795 5789 5784 5779 5775 5770 5766 5763 5759 5755 5752 5749 5747 5745 5743 5741 5739 5737 5736 5734 5733 5732 5730 5729 5729 5728 5728 5728 5731 5734 5735 5735 5733 5730 5727 5725 5723 5721 5719
5829 5817 5807 5799 5793 5787 5782 5777 5772 5768 5764 5760 5756 5752 5749 5746 5743 5742 5740 5738 5736 5734 5733 5732 5730 5729 5728 5727 5726 5726 5726 5726 5726 5729 5732 5732 5729 5727 5725 5724 5722 5720 5718
5823 5814 5807 5800 5793 5786 5780 5774 5769 5765 5761 5757 5752 5749 5746 5742 5740 5738 5737 5735 5733 5732 5730 5729 5728 5726 5725 5724 5724 5724 5724 5724 5724 5727 5729 5729 5727 5725 5723 5722 5720 5717 5716
5816 5811 5805 5799 5793 5787 5781 5774 5767 5763 5758 5753 5749 5745 5742 5740 5738 5736 5735 5733 5731 5729 5727 5726 5726 5724 5723 5722 5722 5722 5721 5722 5724 5726 5727 5726 5725 5723 5721 5719 5717 5715 5714
5808 5806 5803 5798 5792 5786 5781 5773 5766 5761 5757 5751 5748 5743 5740 5739 5738 5737 5734 5732 5729 5726 5724 5723 5722 5721 5721 5721 5721 5720 5720 5721 5723 5725 5725 5724 5724 5721 5719 5718 5716 5714 5712
5806 5802 5800 5796 5790 5784 5779 5771 5766 5761 5756 5752 5748 5743 5739 5737 5735 5734 5732 5729 5726 5723 5722 5722 5720 5719 5719 5720 5721 5720 5719 5720 5722 5723 5722 5722 5721 5719 5717 5716 5714 5712 5711
5801 5798 5796 5792 5786 5781 5776 5770 5764 5760 5755 5751 5747 5743 5739 5735 5733 5731 5730 5727 5724 5722 5720 5720 5718 5718 5718 5719 5720 5720 5719 5719 5720 5721 5719 5719 5718 5717 5715 5713 5712 5711 5710
5796 5793 5792 5789 5783 5777 5771 5766 5762 5757 5753 5749 5745 5741 5737 5732 5729 5728 5727 5725 5723 5721 5719 5717 5716 5715 5715 5716 5716 5717 5717 5717 5717 5717 5716 5716 5714 5713 5713 5712 5710 5709 5708
5790 5788 5786 5783 5778 5773 5767 5761 5757 5753 5749 5746 5741 5738 5734 5730 5726 5724 5722 5721 5719 5717 5715 5713 5712 5711 5711 5711 5711 5713 5714 5714 5714 5714 5713 5712 5711 5711 5710 5709 5708 5707 5706
5786 5784 5781 5777 5773 5768 5763 5757 5754 5750 5746 5742 5738 5734 5730 5726 5723 5721 5718 5716 5715 5713 5711 5709 5708 5707 5706 5706 5706 5708 5709 5709 5710 5710 5709 5709 5708 5707 5707 5706 5705 5704 5704
5780 5777 5774 5773 5767 5763 5757 5752 5749 5745 5741 5737 5734 5730 5726 5722 5719 5716 5713 5712 5710 5708 5706 5704 5702 5701 5700 5700 5700 5701 5703 5704 5705 5704 5705 5705 5705 5705 5704 5703 5702 5701 5701
5774 5770 5766 5763 5759 5756 5752 5747 5744 5739 5736 5733 5730 5726 5722 5719 5715 5711 5708 5706 5705 5703 5701 5700 5698 5695 5693 5693 5693 5695 5697 5699 5700 5700 5700 5700 5701 5700 5700 5699 5698 5698 5697
5767 5762 5757 5754 5751 5748 5745 5741 5736 5733 5730 5727 5724 5720 5716 5713 5710 5706 5703 5701 5700 5697 5695 5694 5692 5691 5688 5687 5688 5690 5691 5693 5695 5695 5695 5695 5696 5696 5695 5696 5694 5694 5694
5756 5753 5748 5745 5742 5739 5734 5731 5727 5724 5722 5719 5716 5714 5711 5708 5705 5701 5698 5695 5693 5691 5689 5688 5686 5684 5682 5682 5680 5680 5684 5688 5689 5689 5690 5690 5690 5691 5691 5691 5691 5691 5690
5747 5743 5740 5737 5735 5732 5728 5726 5722 5719 5716 5713 5711 5709 5705 5702 5699 5697 5692 5690 5688 5686 5683 5682 5680 5678 5677 5676 5673 5669 5669 5673 5678 5684 5683 5683 5684 5686 5686 5687 5686 5687 5687
5741 5736 5733 5730 5728 5726 5723 5720 5717 5713 5711 5708 5704 5700 5699 5696 5693 5690 5687 5685 5682 5680 5678 5677 5676 5672 5669 5670 5670 5665 5660 5659 5665 5672 5675 5677 5677 5678 5680 5681 5681 5682 5682
5736 5732 5727 5724 5721 5719 5717 5712 5708 5704 5702 5700 5698 5695 5692 5689 5687 5684 5682 5680 5677 5676 5674 5673 5671 5668 5665 5662 5663 5663 5661 5660 5655 5657 5663 5668 5670 5671 5673 5674 5676 5677 5677
5730 5726 5721 5717 5713 5711 5709 5706 5702 5700 5698 5695 5692 5689 5686 5684 5681 5679 5677 5674 5673 5671 5669 5668 5666 5664 5661 5659 5656 5655 5654 5654 5653 5649 5650 5655 5659 5664 5667 5669 5670 5671 5671
5722 5718 5714 5710 5706 5703 5701 5698 5695 5692 5690 5687 5684 5681 5680 5678 5676 5674 5672 5670 5668 5666 5664 5664 5662 5659 5657 5655 5653 5651 5649 5647 5646 5645 5644 5647 5649 5655 5660 5664 5665 5666 5666